N931CD KJWN-KBNA

Flight info

Callsign N931CD
Flight time N/A
Altitude VFR
Route
Aircraft BE58/L-DOV/C

Departure

Time 2026-05-08 00:07
Airport John C Tune Airport (KJWN)

Arrival

Time N/A
Airport Nashville International Airport (KBNA)
Time Latitude Longitude Altitude Speed Heading
2026-05-08 00:01 35.72129 -86.39971 4510 ft 178 kts 331°
2026-05-08 00:02 35.73210 -86.40708 4512 ft 178 kts 331°
2026-05-08 00:02 35.74297 -86.41449 4509 ft 179 kts 331°
2026-05-08 00:02 35.75384 -86.42191 4504 ft 179 kts 331°
2026-05-08 00:02 35.76469 -86.42931 4506 ft 179 kts 331°
2026-05-08 00:03 35.77557 -86.43674 4502 ft 178 kts 331°
2026-05-08 00:03 35.78643 -86.44416 4503 ft 179 kts 331°
2026-05-08 00:03 35.79733 -86.45160 4502 ft 179 kts 331°
2026-05-08 00:03 35.80822 -86.45904 4499 ft 179 kts 331°
2026-05-08 00:04 35.81908 -86.46647 4496 ft 179 kts 331°
2026-05-08 00:04 35.82997 -86.47391 4495 ft 179 kts 331°
2026-05-08 00:04 35.84086 -86.48135 4494 ft 179 kts 331°
2026-05-08 00:04 35.85041 -86.49095 4496 ft 180 kts 309°
2026-05-08 00:05 35.85782 -86.50350 4311 ft 180 kts 307°
2026-05-08 00:05 35.86507 -86.51605 4107 ft 179 kts 307°
2026-05-08 00:05 35.87218 -86.52850 3903 ft 177 kts 307°
2026-05-08 00:05 35.87924 -86.54086 3731 ft 176 kts 306°
2026-05-08 00:06 35.88630 -86.55320 3530 ft 176 kts 307°
2026-05-08 00:06 35.89338 -86.56558 3328 ft 177 kts 307°
2026-05-08 00:06 35.90043 -86.57794 3130 ft 176 kts 307°
2026-05-08 00:06 35.90743 -86.59016 3034 ft 171 kts 307°
2026-05-08 00:07 35.91417 -86.60197 3031 ft 167 kts 307°
2026-05-08 00:07 35.92083 -86.61364 3027 ft 166 kts 307°
2026-05-08 00:07 35.92750 -86.62529 3007 ft 166 kts 307°
2026-05-08 00:07 35.93414 -86.63694 3011 ft 166 kts 307°
2026-05-08 00:08 35.94083 -86.64863 3007 ft 167 kts 307°
2026-05-08 00:08 35.94752 -86.66034 3005 ft 167 kts 307°
2026-05-08 00:08 35.95417 -86.67201 3003 ft 166 kts 307°
2026-05-08 00:08 35.96077 -86.68363 3000 ft 165 kts 307°
2026-05-08 00:09 35.96513 -86.69130 2995 ft 164 kts 307°
2026-05-08 00:09 35.97171 -86.70282 3002 ft 164 kts 307°
2026-05-08 00:09 35.97824 -86.71441 2995 ft 164 kts 307°
2026-05-08 00:09 35.98654 -86.72289 2992 ft 149 kts 345°
2026-05-08 00:10 35.99587 -86.72046 2993 ft 146 kts 35°
2026-05-08 00:10 36.00698 -86.71108 2826 ft 141 kts 19°
2026-05-08 00:10 36.01314 -86.70821 2702 ft 139 kts 19°
2026-05-08 00:10 36.02221 -86.70413 2510 ft 138 kts 17°
2026-05-08 00:11 36.03124 -86.70036 2324 ft 134 kts 17°
2026-05-08 00:11 36.03970 -86.69681 2150 ft 125 kts 15°
2026-05-08 00:11 36.04796 -86.69360 1988 ft 123 kts 16°
2026-05-08 00:11 36.05610 -86.69032 1822 ft 122 kts 16°
2026-05-08 00:12 36.06414 -86.68710 1654 ft 121 kts 17°
2026-05-08 00:12 36.07215 -86.68388 1486 ft 121 kts 17°
2026-05-08 00:12 36.08018 -86.68065 1312 ft 123 kts 15°
2026-05-08 00:12 36.08827 -86.67741 1150 ft 121 kts 15°
2026-05-08 00:13 36.09625 -86.67422 989 ft 115 kts 15°
2026-05-08 00:13 36.10357 -86.67129 834 ft 107 kts 15°
2026-05-08 00:13 36.11112 -86.66831 692 ft 116 kts 17°
2026-05-08 00:13 36.11821 -86.66545 582 ft 96 kts 18°
2026-05-08 00:14 36.12442 -86.66298 579 ft 107 kts 17°
2026-05-08 00:14 36.13220 -86.66012 726 ft 122 kts 13°